Nahuel Rios

Chief Scout - Cerro Largo
4 Apr 2027
Sunday
Process

Personality

Adaptability (1) Ambition (6) Controversy (12) Loyalty (1) Pressure (8) Professionalism (19) Sportsmanship (2) Temperament (19)

Profile

Coaching Style Democratic
License Continental Pro
Determination 9
Man Management 6
Motivating 8
Discipline 11
Job Satisfaction
100%
Fatigue
0%
Role Chief Scout
Wage 52.3K p/w
Contract 14.03.2028

Performance

Behaviour Good
Training Effectiveness
41%
Player Development
40%
Injury Prevention
30%
Tactical Implementation
50%

Recent Events

Assessed a player now
Attended a recruitment meeting now
Assessed a player 7d ago
Attended a recruitment meeting 7d ago
Assessed a player 7d ago
Assessed a player 7d ago
Assessed a player 7d ago
Assessed a player 7d ago

Currently Monitoring

186
Player Club Status Ability Confidence Watched Last Observed Latest Vote
Taiwo Awoniyi Coventry City Active 145 / 147 40% 2 02.04.2027 -
Martín Álvarez Barnsley Active 131 / 102 40% 2 30.03.2027 -
Gabriele Artistico Padova Active 126 / 128 40% 1 30.03.2027 -
Matty Stevens AFC Wimbledon Active 87 / 96 40% 3 29.03.2027 -
Elijah Adebayo Luton Town Active 119 / 116 40% 3 29.03.2027 -
Rui Costa Port Vale Active 117 / 106 40% 2 28.03.2027 -
Fabrizio Cavegn Bristol Rovers Active 98 / 120 40% 2 28.03.2027 -
Aidomo Emakhu Oxford United Active 122 / 128 40% 3 28.03.2027 -
Daniel Rivillo Rotor Active 112 / 119 40% 1 28.03.2027 -
John Okoye Ebuka Ittihad Active 104 / 123 40% 4 27.03.2027 -
Malik Mothersille Stockport County Active 102 / 119 40% 3 27.03.2027 -
Giuseppe Di Serio Spezia Active 117 / 132 40% 1 25.03.2027 -
Dani Gómez Zaragoza Active 133 / 126 40% 2 22.03.2027 -
Job Ochieng Real Sociedad Active 95 / 114 40% 1 22.03.2027 -
Midana Cassamá Portimonense Active 125 / 110 40% 1 21.03.2027 -
Ekain Orobengoa Real Sociedad Active 85 / 109 40% 1 20.03.2027 -
Yousef Salech Cardiff City Active 107 / 126 40% 2 19.03.2027 -
Mathias Kvistgaarden Norwich City Active 134 / 120 40% 2 19.03.2027 -
Stephen Humphrys Bradford City Active 92 / 100 40% 1 18.03.2027 -
Carlos Paraco Metalist Active 117 / 125 40% 3 17.03.2027 -
Morgan Whittaker Middlesbrough Active 131 / 123 40% 3 17.03.2027 -
Anatole Abang USM Alger Active 98 / 113 40% 1 17.03.2027 -
Alex Robertson Cardiff City Active 104 / 112 40% 1 17.03.2027 -
Dany Mota Monza Active 125 / 136 40% 4 16.03.2027 -
Akinkunmi Amoo Ismaily Active 115 / 106 40% 2 16.03.2027 -
Danyil Alefirenko Chornomorets Active 92 / 97 40% 3 15.03.2027 -
Lorent Tolaj Plymouth Argyle Active 120 / 118 40% 2 15.03.2027 -
Marcus Browne AFC Wimbledon Active 129 / 111 40% 1 13.03.2027 -
Miro Dinamo Makhachkala Active 94 / 106 40% 2 12.03.2027 -
José Barreto Fehervar Active 104 / 109 40% 1 12.03.2027 -
André Vidigal ENPPI Active 92 / 96 40% 1 12.03.2027 -
Xavier Amaechi Plymouth Argyle Active 109 / 104 40% 1 12.03.2027 -
Siyanda Ndlovu Hearts of Oak Active 120 / 115 40% 1 11.03.2027 -
Shayne Lavery Cambridge United Active 84 / 104 40% 1 11.03.2027 -
Brandon Hanlan Doncaster Rovers Active 102 / 96 40% 2 09.03.2027 -
Petar Stanić Ludogorets Active 123 / 121 40% 1 09.03.2027 -
Fred Onyedinma Barnsley Active 126 / 116 40% 1 09.03.2027 -
Sam Greenwood Bristol City Active 103 / 131 40% 1 09.03.2027 -
Mattia Bortolussi Padova Active 131 / 124 40% 2 08.03.2027 -
Ilias Chair Queens Park Rangers Active 112 / 126 40% 1 07.03.2027 -
Zak Swanson Doncaster Rovers Active 96 / 110 40% 1 07.03.2027 -
Ali Youssef Apollon Active 135 / 124 40% 1 05.03.2027 -
Jason Knight Bristol City Active 150 / 136 40% 1 04.03.2027 -
Felipe Fernández Vorskla Active 89 / 109 40% 3 01.03.2027 -
Tyreece Campbell Charlton Athletic Active 137 / 120 40% 1 01.03.2027 -
Helinho Toluca Active 113 / 136 40% 1 01.03.2027 -
Kieran Dowell Hull City Active 113 / 112 40% 1 01.03.2027 -
Tommy Conway Middlesbrough Active 107 / 114 40% 3 26.02.2027 -
Niall Ennis Blackpool Active 101 / 96 40% 1 23.02.2027 -
Oleksii Hutsuliak Polissia Active 132 / 137 40% 1 23.02.2027 -
Aaron Drinan Swindon Town Active 114 / 97 40% 2 22.02.2027 -
Amos Inusah Wa All Stars Active 90 / 111 40% 1 20.02.2027 -
Yeangel Montero Naxxar Lions Active 84 / 110 40% 2 19.02.2027 -
Alberto Cerri Cesena Active 102 / 131 40% 1 19.02.2027 -
Akor Adams Venezia Active 156 / 137 40% 2 18.02.2027 -
Richard Koné Queens Park Rangers Active 113 / 135 40% 2 15.02.2027 -
Brayan Gil Baltika Active 133 / 113 40% 1 13.02.2027 -
Dale Taylor Blackpool Active 127 / 108 40% 1 12.02.2027 -
Harry Leonard Peterborough United Active 91 / 103 40% 1 12.02.2027 -
Piotr Samiec-Talar Slask Active 121 / 109 40% 1 09.02.2027 -
François Kamano Sochi Active 109 / 101 40% 2 08.02.2027 -
Alessio Nepi Perugia Active 84 / 109 40% 1 05.02.2027 -
Uriël Van Aalst Willem II Active 87 / 98 40% 1 05.02.2027 -
Lorenzo Di Stefano Torres Active 112 / 99 40% 2 02.02.2027 -
Tedi Cara LNZ Active 120 / 109 40% 1 02.02.2027 -
Yurii Klymchuk Kolos Active 109 / 101 40% 1 01.02.2027 -
Lamine Diakité Djoliba Active 92 / 97 40% 1 31.01.2027 -
Claudio Villagra Godoy Cruz Active 108 / 119 40% 2 28.01.2027 -
Fábio Tavares Newport County Active 109 / 108 40% 2 27.01.2027 -
Mohamed Konaté Akhmat Grozny Active 109 / 108 40% 1 27.01.2027 -
Kenan Dervišagić Floriana Active 90 / 91 40% 1 21.01.2027 -
Enzo González Defensores Active 97 / 112 40% 1 21.01.2027 -
Agustín Hausch Defensa y Justicia Active 125 / 114 40% 2 20.01.2027 -
Slobodan Tedić Akron Active 116 / 118 40% 1 20.01.2027 -
Mykola Haiduchyk Polissia Active 105 / 117 40% 1 18.01.2027 -
Mauro Méndez Tigre Active 118 / 127 40% 2 17.01.2027 -
Matías Giménez Rojas Argentinos Juniors Active 130 / 120 40% 2 17.01.2027 -
Robert Murić Floriana Active 89 / 110 40% 1 13.01.2027 -
Tomás Molina Argentinos Juniors Active 139 / 124 40% 4 12.01.2027 -
Tiago Pucciarelli FK Senica Active 83 / 96 40% 2 12.01.2027 -
Martin Sekulić Ural Active 101 / 118 40% 1 08.01.2027 -
Róbert Polievka MTK Budapest Active 92 / 126 40% 1 07.01.2027 -
Antonio Vutov Arda Active 105 / 119 40% 1 06.01.2027 -
Papa Ndiaga Yade Oleksandriya Active 125 / 90 40% 1 05.01.2027 -
Franco Déboli Slaven Belupo Active 90 / 116 40% 1 04.01.2027 -
Moussakoye Diallo Stade Malien Active 90 / 99 40% 1 04.01.2027 -
Marco Miori Alvarado Active 123 / 120 40% 3 29.12.2026 -
Gilson Benchimol Akron Active 91 / 117 40% 1 28.12.2026 -
Juan Rocca Gimnasia y Tiro Active 100 / 99 40% 1 28.12.2026 -
Martin Petkov Botev Vratsa Active 81 / 100 40% 1 26.12.2026 -
Sam Nombe Milton Keynes Dons Active 118 / 104 40% 1 26.12.2026 -
Alejandro Melo Temperley Active 102 / 113 40% 1 24.12.2026 -
David Barbona Defensa y Justicia Active 125 / 124 40% 3 23.12.2026 -
David Ankeye Zeleznicar Pancevo Active 110 / 122 40% 1 22.12.2026 -
Nicolás Prieto La Luz Active 95 / 97 44% 1 21.12.2026 -
Barna Tóth Paksi Active 85 / 97 40% 1 17.12.2026 -
Edarlyn Reyes Arsenal Tula Active 105 / 102 40% 1 16.12.2026 -
Franco García Ferro Carril Oeste Active 116 / 106 40% 2 26.11.2026 -
Gonzalo Berterame Morón Active 123 / 112 40% 1 25.11.2026 -
Octavio Bianchi HNK Vukovar 1991 Rejected 128 / 101 40% 2 24.11.2026 Needs More Info
Facundo Castro Nueva Chicago Rejected 116 / 113 40% 2 23.11.2026 Needs More Info
Dániel Lukács Puskas Akademia Rejected 126 / 120 40% 1 23.11.2026 Needs More Info
Marcelo Torres Gimnasia La Plata Active 113 / 124 40% 3 19.11.2026 -
Nicolás Heiz Maipú Active 104 / 115 40% 1 18.11.2026 -
Marcelo Estigarribia Unión de Santa Fe Rejected 127 / 113 40% 1 16.11.2026 Needs More Info
Domi Berlanga Vicenza Active 87 / 93 40% 1 16.11.2026 -
Lucas Cano All Boys Active 103 / 113 40% 2 15.11.2026 -
Juan Cruz Zurbriggen San Telmo Active 106 / 95 40% 1 15.11.2026 -
Favio Cabral Mitre Active 124 / 112 40% 3 12.11.2026 -
Jerónimo Porto Lapegüe Slask Active 105 / 97 40% 1 12.11.2026 -
Santiago Rodríguez Gimnasia y Esgrima Active 115 / 124 40% 2 11.11.2026 -
Luca Martínez Dupuy Godoy Cruz Active 111 / 117 40% 1 11.11.2026 -
Matías Samaniego Talleres Active 98 / 108 40% 2 10.11.2026 -
Martín Garnerone Estudiantes Active 110 / 113 40% 2 09.11.2026 -
Franco Fagúndez Estudiantes Rejected 130 / 112 40% 1 07.11.2026 Needs More Info
Álex Arce Independiente Rivadavia Rejected 130 / 122 40% 1 06.11.2026 Needs More Info
Agustín Venezia Iquique Rejected 116 / 117 40% 3 05.11.2026 Reject
Aaron Spetale AGF Active 104 / 106 40% 2 03.11.2026 -
Bautista Arricau OB Active 81 / 90 40% 1 03.11.2026 -
Tomás Bolzicco Chaco For Ever Active 101 / 95 40% 1 31.10.2026 -
Claudio Salto Almagro Active 96 / 105 40% 1 30.10.2026 -
Max Fenger IFK Goteborg Active 115 / 125 40% 1 30.10.2026 -
Salah Mohsen El Masry Active 95 / 112 40% 1 28.10.2026 -
Lucas González Estudiantes Active 112 / 101 40% 1 28.10.2026 -
Mauro Valiente Estudiantes Active 105 / 121 40% 2 24.10.2026 -
Mauro Schönfeld Stjarnan Active 102 / 122 40% 3 23.10.2026 -
Jhonatan Candia Barracas Central Active 120 / 123 40% 1 21.10.2026 -
Brian Blando Agropecuario Argentino Active 105 / 104 40% 1 16.10.2026 -
Brayan Hurtado Antofagasta Active 111 / 105 40% 1 11.10.2026 -
Enzo Avaro Mitre Active 125 / 119 40% 1 10.10.2026 -
Marcos Machado Mitre Active 97 / 112 40% 1 09.10.2026 -
Kevin Méndez Union La Calera Active 103 / 101 40% 1 08.10.2026 -
Javi Zarzo Viitorul Active 78 / 112 40% 1 04.10.2026 -
Germán Cervera Alvarado Active 94 / 104 40% 1 02.10.2026 -
Agustín Paz Progreso Active 100 / 110 40% 1 29.09.2026 -
José Balza Deportivo Tachira Active 110 / 114 40% 1 29.09.2026 -
Juan Cruz Martins Minnesota United FC Active 106 / 85 40% 1 28.09.2026 -
George Puşcaş Dinamo Bucharest Active 98 / 125 40% 1 26.09.2026 -
Richard Figueroa Deportivo Lara Active 104 / 101 40% 1 26.09.2026 -
Maicol Ferreira Danubio Active 93 / 98 40% 1 24.09.2026 -
Agustín Fontana Sparta Prague Active 133 / 119 40% 1 24.09.2026 -
Maximiliano Rodríguez Huachipato Active 120 / 114 40% 1 22.09.2026 -
Maclyn Biokpo Jenewari Rivers United Active 123 / 107 40% 1 21.09.2026 -
Enzo Larrosa Independiente Medellin Active 101 / 98 40% 1 21.09.2026 -
Tobías Donsanti Slovan Liberec Active 112 / 99 40% 2 20.09.2026 -
Ramiro Ruiz Rodríguez Atlético Tucumán Active 109 / 114 40% 1 20.09.2026 -
Alejo Cruz Juventud Active 124 / 126 40% 2 19.09.2026 -
Elias Manoel Tijuana Active 91 / 125 40% 1 18.09.2026 -
Matías Gallegos Antofagasta Active 93 / 100 40% 1 18.09.2026 -
David Lemos Antalyaspor Active 105 / 96 40% 1 16.09.2026 -
Guillermo Martínez Pumas UNAM Active 139 / 122 40% 2 15.09.2026 -
Joaquín Zeballos Wanderers Active 118 / 99 40% 1 15.09.2026 -
Gabriel Castillo Valledupar Active 108 / 110 40% 1 14.09.2026 -
Jhon Murillo America de Cali Active 125 / 113 40% 2 13.09.2026 -
Marcos Cuenca Zaragoza Active 87 / 112 40% 1 13.09.2026 -
Edwar López Deportes Tolima Active 107 / 118 40% 1 12.09.2026 -
Ray Sandoval Cienciano Active 101 / 119 40% 1 12.09.2026 -
Santiago Cubides Jaguares Active 107 / 109 40% 1 08.09.2026 -
Marcus Vinicius Deportivo Pereira Active 107 / 116 40% 1 07.09.2026 -
Abel Argañaraz Gimnasia y Esgrima Active 92 / 112 40% 1 06.09.2026 -
Fernando Mimbacas Juventud Active 111 / 112 40% 1 05.09.2026 -
Jimmy Evans Universidad Catolica Active 114 / 109 40% 1 04.09.2026 -
Bruno Larregui Juventud Active 129 / 123 40% 1 03.09.2026 -
Daniel Valencia America de Cali Active 127 / 125 40% 1 03.09.2026 -
Michael Nike Patriotas Active 108 / 114 40% 1 02.09.2026 -
Adrián Parra Deportes Tolima Active 131 / 107 40% 1 31.08.2026 -
Jeriel De Santis Caracas Active 98 / 113 40% 1 28.08.2026 -
Federico Martínez Liverpool Montevideo Active 121 / 109 40% 1 28.08.2026 -
Jhonier Blanco Fortaleza CEIF Active 100 / 118 40% 2 22.08.2026 -
Darío Rodríguez IFK Mariehamn Active 95 / 100 40% 1 21.08.2026 -
Eryc Castillo Alianza Lima Active 122 / 113 40% 1 20.08.2026 -
Cristian Núñez Huracán Active 108 / 116 40% 1 17.08.2026 -
Rodin Quiñónes Dinamo Batumi Active 131 / 102 40% 1 15.08.2026 -
Ricardo Echeverría Santos Laguna Active 129 / 109 40% 1 10.08.2026 -
Marcos Camarda Santiago Wanderers Active 119 / 95 40% 1 10.08.2026 -
Valentín Robaldo Alianza Atletico Active 97 / 101 40% 1 10.08.2026 -
Fernando Álvarez Deportivo Cali Active 103 / 121 40% 1 08.08.2026 -
Lucas Souto Defensa y Justicia Active 120 / 124 40% 1 08.08.2026 -
Luciano Arriagada Huachipato Active 89 / 92 40% 1 08.08.2026 -
Thomás Amilivia Leones Active 115 / 110 40% 1 08.08.2026 -
Aldair Zárate Atletico Bucaramanga Active 112 / 114 40% 1 06.08.2026 -
Bryan Rivera Estudiantes de Merida Active 102 / 99 40% 1 06.08.2026 -
Dennys Quintero Llaneros Active 114 / 115 40% 1 05.08.2026 -
Yerco Oyanedel Universidad de Concepcion Active 92 / 102 40% 1 05.08.2026 -
Jhoao Rodríguez Deportes Quindio Active 104 / 112 40% 1 03.08.2026 -
Marco Bustillo Zamora Active 114 / 105 40% 1 01.08.2026 -